Year,Month,Day,Hour,Minute,Value (Times are PST for temperature in C)
2011,09,22,00,00,14.10
2011,09,22,00,01,14.10
2011,09,22,00,02,14.10
2011,09,22,00,03,14.10
2011,09,22,00,04,14.10
2011,09,22,00,05,14.10
2011,09,22,00,06,14.10
2011,09,22,00,07,14.00
2011,09,22,00,08,14.00
2011,09,22,00,09,14.00
2011,09,22,00,10,14.00
2011,09,22,00,11,14.00
2011,09,22,00,12,14.00
2011,09,22,00,13,14.00
2011,09,22,00,14,14.00
2011,09,22,00,15,14.00
2011,09,22,00,16,14.00
2011,09,22,00,17,14.00
2011,09,22,00,18,14.00
2011,09,22,00,19,14.00
2011,09,22,00,20,14.00
2011,09,22,00,21,14.00
2011,09,22,00,22,14.00
2011,09,22,00,23,14.00
2011,09,22,00,24,14.00
2011,09,22,00,25,14.00
2011,09,22,00,26,14.00
2011,09,22,00,27,14.00
2011,09,22,00,28,14.00
2011,09,22,00,29,14.00
2011,09,22,00,30,14.00
2011,09,22,00,31,14.00
2011,09,22,00,32,14.00
2011,09,22,00,33,14.00
2011,09,22,00,34,14.00
2011,09,22,00,35,14.00
2011,09,22,00,36,14.00
2011,09,22,00,37,14.00
2011,09,22,00,38,14.00
2011,09,22,00,39,14.00
2011,09,22,00,40,14.00
2011,09,22,00,41,14.00
2011,09,22,00,42,14.00
2011,09,22,00,43,14.00
2011,09,22,00,44,14.00
2011,09,22,00,45,14.00
2011,09,22,00,46,14.00
2011,09,22,00,47,14.00
2011,09,22,00,48,14.00
2011,09,22,00,49,14.00
2011,09,22,00,50,14.00
2011,09,22,00,51,14.00
2011,09,22,00,52,14.00
2011,09,22,00,53,14.00
2011,09,22,00,54,14.00
2011,09,22,00,55,14.00
2011,09,22,00,56,14.00
2011,09,22,00,57,14.10
2011,09,22,00,58,14.00
2011,09,22,00,59,14.00
2011,09,22,01,00,14.00
2011,09,22,01,01,14.00
2011,09,22,01,02,14.00
2011,09,22,01,03,14.00
2011,09,22,01,04,14.00
2011,09,22,01,05,14.10
2011,09,22,01,06,14.00
2011,09,22,01,07,14.10
2011,09,22,01,08,14.10
2011,09,22,01,09,14.10
2011,09,22,01,10,14.10
2011,09,22,01,11,14.10
2011,09,22,01,12,14.10
2011,09,22,01,13,14.10
2011,09,22,01,14,14.10
2011,09,22,01,15,14.10
2011,09,22,01,16,14.10
2011,09,22,01,17,14.10
2011,09,22,01,18,14.10
2011,09,22,01,19,14.10
2011,09,22,01,20,14.10
2011,09,22,01,21,14.10
2011,09,22,01,22,14.10
2011,09,22,01,23,14.10
2011,09,22,01,24,14.10
2011,09,22,01,25,14.10
2011,09,22,01,26,14.10
2011,09,22,01,27,14.10
2011,09,22,01,28,14.10
2011,09,22,01,29,14.10
2011,09,22,01,30,14.10
2011,09,22,01,31,14.10
2011,09,22,01,32,14.10
2011,09,22,01,33,14.10
2011,09,22,01,34,14.10
2011,09,22,01,35,14.10
2011,09,22,01,36,14.10
2011,09,22,01,37,14.10
2011,09,22,01,38,14.10
2011,09,22,01,39,14.10
2011,09,22,01,40,14.10
2011,09,22,01,41,14.10
2011,09,22,01,42,14.10
2011,09,22,01,43,14.10
2011,09,22,01,44,14.10
2011,09,22,01,45,14.10
2011,09,22,01,46,14.10
2011,09,22,01,47,14.10
2011,09,22,01,48,14.10
2011,09,22,01,49,14.10
2011,09,22,01,50,14.10
2011,09,22,01,51,14.10
2011,09,22,01,52,14.10
2011,09,22,01,53,14.10
2011,09,22,01,54,14.10
2011,09,22,01,55,14.10
2011,09,22,01,56,14.10
2011,09,22,01,57,14.10
2011,09,22,01,58,14.10
2011,09,22,01,59,14.10
2011,09,22,02,00,14.10
2011,09,22,02,01,14.10
2011,09,22,02,02,14.10
2011,09,22,02,03,14.10
2011,09,22,02,04,14.10
2011,09,22,02,05,14.10
2011,09,22,02,06,14.10
2011,09,22,02,07,14.10
2011,09,22,02,08,14.10
2011,09,22,02,09,14.10
2011,09,22,02,10,14.10
2011,09,22,02,11,14.10
2011,09,22,02,12,14.10
2011,09,22,02,13,14.10
2011,09,22,02,14,14.10
2011,09,22,02,15,14.10
2011,09,22,02,16,14.10
2011,09,22,02,17,14.10
2011,09,22,02,18,14.10
2011,09,22,02,19,14.10
2011,09,22,02,20,14.10
2011,09,22,02,21,14.10
2011,09,22,02,22,14.10
2011,09,22,02,23,14.10
2011,09,22,02,24,14.10
2011,09,22,02,25,14.10
2011,09,22,02,26,14.10
2011,09,22,02,27,14.10
2011,09,22,02,28,14.10
2011,09,22,02,29,14.10
2011,09,22,02,30,14.10
2011,09,22,02,31,14.10
2011,09,22,02,32,14.10
2011,09,22,02,33,14.10
2011,09,22,02,34,14.10
2011,09,22,02,35,14.10
2011,09,22,02,36,14.10
2011,09,22,02,37,14.10
2011,09,22,02,38,14.10
2011,09,22,02,39,14.10
2011,09,22,02,40,14.10
2011,09,22,02,41,14.10
2011,09,22,02,42,14.10
2011,09,22,02,43,14.10
2011,09,22,02,44,14.10
2011,09,22,02,45,14.10
2011,09,22,02,46,14.10
2011,09,22,02,47,14.10
2011,09,22,02,48,14.10
2011,09,22,02,49,14.10
2011,09,22,02,50,14.10
2011,09,22,02,51,14.10
2011,09,22,02,52,14.10
2011,09,22,02,53,14.10
2011,09,22,02,54,14.10
2011,09,22,02,55,14.10
2011,09,22,02,56,14.10
2011,09,22,02,57,14.10
2011,09,22,02,58,14.10
2011,09,22,02,59,14.10
2011,09,22,03,00,14.10
2011,09,22,03,01,14.10
2011,09,22,03,02,14.10
2011,09,22,03,06,14.10
2011,09,22,03,07,14.10
2011,09,22,03,08,14.10
2011,09,22,03,09,14.10
2011,09,22,03,10,14.10
2011,09,22,03,11,14.10
2011,09,22,03,12,14.10
2011,09,22,03,13,14.10
2011,09,22,03,14,14.10
2011,09,22,03,15,14.10
2011,09,22,03,16,14.10
2011,09,22,03,17,14.10
2011,09,22,03,18,14.10
2011,09,22,03,19,14.10
2011,09,22,03,20,14.10
2011,09,22,03,21,14.10
2011,09,22,03,22,14.10
2011,09,22,03,23,14.10
2011,09,22,03,24,14.10
2011,09,22,03,25,14.10
2011,09,22,03,26,14.10
2011,09,22,03,27,14.10
2011,09,22,03,28,14.10
2011,09,22,03,29,14.10
2011,09,22,03,30,14.10
2011,09,22,03,31,14.10
2011,09,22,03,32,14.00
2011,09,22,03,33,14.00
2011,09,22,03,34,14.00
2011,09,22,03,35,14.00
2011,09,22,03,36,14.00
2011,09,22,03,37,14.00
2011,09,22,03,38,14.00
2011,09,22,03,39,14.00
2011,09,22,03,40,14.00
2011,09,22,03,41,14.00
2011,09,22,03,42,14.00
2011,09,22,03,43,14.00
2011,09,22,03,44,14.00
2011,09,22,03,45,14.00
2011,09,22,03,46,14.00
2011,09,22,03,47,14.00
2011,09,22,03,48,14.00
2011,09,22,03,49,14.10
2011,09,22,03,50,14.00
2011,09,22,03,51,14.00
2011,09,22,03,52,14.00
2011,09,22,03,53,14.00
2011,09,22,03,54,14.00
2011,09,22,03,55,14.00
2011,09,22,03,56,14.00
2011,09,22,03,58,14.00
2011,09,22,03,59,14.00
2011,09,22,04,00,14.00
2011,09,22,04,01,14.00
2011,09,22,04,02,14.00
2011,09,22,04,03,14.00
2011,09,22,04,04,14.00
2011,09,22,04,05,14.00
2011,09,22,04,06,14.00
2011,09,22,04,07,14.00
2011,09,22,04,08,14.00
2011,09,22,04,09,14.00
2011,09,22,04,10,14.00
2011,09,22,04,11,14.00
2011,09,22,04,12,14.00
2011,09,22,04,13,14.00
2011,09,22,04,14,14.00
2011,09,22,04,15,14.00
2011,09,22,04,16,14.00
2011,09,22,04,17,14.00
2011,09,22,04,18,14.00
2011,09,22,04,19,14.00
2011,09,22,04,20,14.10
2011,09,22,04,21,14.00
2011,09,22,04,22,14.00
2011,09,22,04,23,14.00
2011,09,22,04,24,14.00
2011,09,22,04,25,14.00
2011,09,22,04,26,14.00
2011,09,22,04,27,14.00
2011,09,22,04,28,14.00
2011,09,22,04,29,14.00
2011,09,22,04,30,14.00
2011,09,22,04,31,14.00
2011,09,22,04,32,14.00
2011,09,22,04,33,14.00
2011,09,22,04,34,14.00
2011,09,22,04,35,14.00
2011,09,22,04,36,14.00
2011,09,22,04,37,14.00
2011,09,22,04,38,14.00
2011,09,22,04,39,14.00
2011,09,22,04,40,13.90
2011,09,22,04,41,13.90
2011,09,22,04,42,13.90
2011,09,22,04,43,13.90
2011,09,22,04,44,13.90
2011,09,22,04,45,13.90
2011,09,22,04,46,13.90
2011,09,22,04,47,13.90
2011,09,22,04,48,13.90
2011,09,22,04,49,13.90
2011,09,22,04,50,13.90
2011,09,22,04,51,13.90
2011,09,22,04,52,13.90
2011,09,22,04,53,13.90
2011,09,22,04,54,13.90
2011,09,22,04,55,13.90
2011,09,22,04,56,13.90
2011,09,22,04,57,13.90
2011,09,22,04,58,13.90
2011,09,22,04,59,13.90
2011,09,22,05,00,13.90
2011,09,22,05,01,13.90
2011,09,22,05,02,13.90
2011,09,22,05,03,13.80
2011,09,22,05,04,13.80
2011,09,22,05,05,13.80
2011,09,22,05,06,13.80
2011,09,22,05,07,13.80
2011,09,22,05,08,13.80
2011,09,22,05,09,13.80
2011,09,22,05,10,13.80
2011,09,22,05,11,13.80
2011,09,22,05,12,13.80
2011,09,22,05,13,13.80
2011,09,22,05,14,13.80
2011,09,22,05,15,13.80
2011,09,22,05,16,13.80
2011,09,22,05,17,13.80
2011,09,22,05,18,13.90
2011,09,22,05,19,13.90
2011,09,22,05,20,13.90
2011,09,22,05,21,13.90
2011,09,22,05,22,13.90
2011,09,22,05,23,13.90
2011,09,22,05,24,13.90
2011,09,22,05,25,13.90
2011,09,22,05,26,13.90
2011,09,22,05,27,13.90
2011,09,22,05,28,13.90
2011,09,22,05,29,13.90
2011,09,22,05,30,13.90
2011,09,22,05,31,13.90
2011,09,22,05,32,13.90
2011,09,22,05,33,13.90
2011,09,22,05,34,13.90
2011,09,22,05,35,13.90
2011,09,22,05,36,13.90
2011,09,22,05,37,13.90
2011,09,22,05,38,13.90
2011,09,22,05,39,13.90
2011,09,22,05,40,13.90
2011,09,22,05,41,13.90
2011,09,22,05,42,13.90
2011,09,22,05,43,13.90
2011,09,22,05,44,13.90
2011,09,22,05,45,13.90
2011,09,22,05,46,13.90
2011,09,22,05,47,13.90
2011,09,22,05,48,13.90
2011,09,22,05,49,13.90
2011,09,22,05,50,13.90
2011,09,22,05,51,13.90
2011,09,22,05,52,13.90
2011,09,22,05,53,13.90
2011,09,22,05,54,13.90
2011,09,22,05,55,13.90
2011,09,22,05,56,13.90
2011,09,22,05,57,13.90
2011,09,22,05,58,13.90
2011,09,22,05,59,13.90
2011,09,22,06,00,13.90
2011,09,22,06,01,13.90
2011,09,22,06,02,13.90
2011,09,22,06,03,13.90
2011,09,22,06,04,13.90
2011,09,22,06,05,13.90
2011,09,22,06,06,13.90
2011,09,22,06,07,13.90
2011,09,22,06,08,13.90
2011,09,22,06,09,13.90
2011,09,22,06,10,13.90
2011,09,22,06,11,13.90
2011,09,22,06,12,13.90
2011,09,22,06,13,14.00
2011,09,22,06,14,14.00
2011,09,22,06,15,14.00
2011,09,22,06,16,14.00
2011,09,22,06,17,14.00
2011,09,22,06,18,14.00
2011,09,22,06,19,14.00
2011,09,22,06,20,14.00
2011,09,22,06,21,14.00
2011,09,22,06,22,14.00
2011,09,22,06,23,14.00
2011,09,22,06,24,14.00
2011,09,22,06,25,14.00
2011,09,22,06,26,14.00
2011,09,22,06,27,14.10
2011,09,22,06,28,14.10
2011,09,22,06,29,14.10
2011,09,22,06,30,14.10
2011,09,22,06,31,14.10
2011,09,22,06,32,14.10
2011,09,22,06,33,14.10
2011,09,22,06,34,14.10
2011,09,22,06,35,14.00
2011,09,22,06,36,14.00
2011,09,22,06,37,14.00
2011,09,22,06,38,14.00
2011,09,22,06,39,14.00
2011,09,22,06,40,14.10
2011,09,22,06,41,14.10
2011,09,22,06,42,14.10
2011,09,22,06,43,14.10
2011,09,22,06,44,14.10
2011,09,22,06,45,14.10
2011,09,22,06,46,14.10
2011,09,22,06,47,14.10
2011,09,22,06,48,14.00
2011,09,22,06,49,14.00
2011,09,22,06,50,14.00
2011,09,22,06,51,14.00
2011,09,22,06,52,14.00
2011,09,22,06,53,14.00
2011,09,22,06,54,14.00
2011,09,22,06,55,14.00
2011,09,22,06,56,14.00
2011,09,22,06,57,14.00
2011,09,22,06,59,14.00
2011,09,22,07,00,14.00
2011,09,22,07,01,14.00
2011,09,22,07,02,14.00
2011,09,22,07,03,14.00
2011,09,22,07,04,14.00
2011,09,22,07,05,14.00
2011,09,22,07,06,14.00
2011,09,22,07,07,14.00
2011,09,22,07,08,14.00
2011,09,22,07,09,14.00
2011,09,22,07,10,14.00
2011,09,22,07,11,14.00
2011,09,22,07,12,14.00
2011,09,22,07,13,14.10
2011,09,22,07,14,14.10
2011,09,22,07,15,14.10
2011,09,22,07,16,14.10
2011,09,22,07,17,14.10
2011,09,22,07,18,14.10
2011,09,22,07,19,14.10
2011,09,22,07,20,14.10
2011,09,22,07,21,14.10
2011,09,22,07,22,14.10
2011,09,22,07,23,14.10
2011,09,22,07,24,14.10
2011,09,22,07,25,14.10
2011,09,22,07,26,14.10
2011,09,22,07,27,14.10
2011,09,22,07,28,14.10
2011,09,22,07,29,14.10
2011,09,22,07,30,14.10
2011,09,22,07,31,14.10
2011,09,22,07,32,14.10
2011,09,22,07,33,14.10
2011,09,22,07,34,14.10
2011,09,22,07,35,14.20
2011,09,22,07,36,14.20
2011,09,22,07,37,14.20
2011,09,22,07,38,14.20
2011,09,22,07,39,14.20
2011,09,22,07,40,14.20
2011,09,22,07,41,14.20
2011,09,22,07,42,14.20
2011,09,22,07,43,14.20
2011,09,22,07,44,14.20
2011,09,22,07,45,14.20
2011,09,22,07,46,14.20
2011,09,22,07,47,14.20
2011,09,22,07,48,14.20
2011,09,22,07,49,14.20
2011,09,22,07,50,14.20
2011,09,22,07,51,14.20
2011,09,22,07,52,14.20
2011,09,22,07,53,14.20
2011,09,22,07,54,14.20
2011,09,22,07,55,14.20
2011,09,22,07,56,14.20
2011,09,22,07,57,14.30
2011,09,22,07,59,14.30
2011,09,22,08,00,14.30
2011,09,22,08,01,14.30
2011,09,22,08,02,14.30
2011,09,22,08,03,14.30
2011,09,22,08,04,14.30
2011,09,22,08,05,14.30
2011,09,22,08,06,14.30
2011,09,22,08,07,14.30
2011,09,22,08,08,14.30
2011,09,22,08,09,14.30
2011,09,22,08,10,14.30
2011,09,22,08,11,14.30
2011,09,22,08,12,14.30
2011,09,22,08,13,14.30
2011,09,22,08,14,14.30
2011,09,22,08,15,14.30
2011,09,22,08,16,14.30
2011,09,22,08,17,14.30
2011,09,22,08,18,14.30
2011,09,22,08,19,14.30
2011,09,22,08,20,14.30
2011,09,22,08,21,14.30
2011,09,22,08,22,14.30
2011,09,22,08,23,14.30
2011,09,22,08,24,14.30
2011,09,22,08,25,14.30
2011,09,22,08,26,14.30
2011,09,22,08,27,14.20
2011,09,22,08,28,14.20
2011,09,22,08,29,14.20
2011,09,22,08,30,14.20
2011,09,22,08,31,14.20
2011,09,22,08,32,14.20
2011,09,22,08,33,14.30
2011,09,22,08,34,14.30
2011,09,22,08,35,14.30
2011,09,22,08,36,14.30
2011,09,22,08,37,14.20
2011,09,22,08,38,14.30
2011,09,22,08,39,14.30
2011,09,22,08,40,14.30
2011,09,22,08,41,14.30
2011,09,22,08,42,14.30
2011,09,22,08,43,14.30
2011,09,22,08,44,14.30
2011,09,22,08,45,14.30
2011,09,22,08,46,14.30
2011,09,22,08,48,14.30
2011,09,22,08,49,14.30
2011,09,22,08,50,14.30
2011,09,22,08,51,14.30
2011,09,22,08,52,14.30
2011,09,22,08,53,14.30
2011,09,22,08,54,14.30
2011,09,22,08,55,14.30
2011,09,22,08,56,14.30
2011,09,22,08,57,14.30
2011,09,22,08,58,14.30
2011,09,22,08,59,14.30
2011,09,22,09,00,14.30
2011,09,22,09,01,14.30
2011,09,22,09,02,14.30
2011,09,22,09,04,14.30
2011,09,22,09,07,14.30
2011,09,22,09,08,14.30
2011,09,22,09,09,14.30
2011,09,22,09,10,14.30
2011,09,22,09,11,14.30
2011,09,22,09,12,14.30
2011,09,22,09,13,14.30
2011,09,22,09,14,14.20
2011,09,22,09,15,14.20
2011,09,22,09,16,14.20
2011,09,22,09,17,14.20
2011,09,22,09,18,14.20
2011,09,22,09,19,14.20
2011,09,22,09,20,14.20
2011,09,22,09,21,14.20
2011,09,22,09,22,14.20
2011,09,22,09,23,14.20
2011,09,22,09,24,14.20
2011,09,22,09,25,14.20
2011,09,22,09,26,14.20
2011,09,22,09,27,14.20
2011,09,22,09,28,14.20
2011,09,22,09,29,14.20
2011,09,22,09,30,14.20
2011,09,22,09,31,14.30
2011,09,22,09,32,14.30
2011,09,22,09,33,14.30
2011,09,22,09,34,14.30
2011,09,22,09,35,14.30
2011,09,22,09,36,14.30
2011,09,22,09,37,14.30
2011,09,22,09,38,14.30
2011,09,22,09,39,14.30
2011,09,22,09,40,14.30
2011,09,22,09,41,14.30
2011,09,22,09,42,14.30
2011,09,22,09,43,14.30
2011,09,22,09,44,14.30
2011,09,22,09,45,14.30
2011,09,22,09,46,14.30
2011,09,22,09,47,14.30
2011,09,22,09,48,14.30
2011,09,22,09,49,14.30
2011,09,22,09,50,14.30
2011,09,22,09,51,14.30
2011,09,22,09,52,14.30
2011,09,22,09,53,14.30
2011,09,22,09,54,14.30
2011,09,22,09,55,14.30
2011,09,22,09,56,14.30
2011,09,22,09,57,14.30
2011,09,22,09,58,14.30
2011,09,22,09,59,14.30
2011,09,22,10,00,14.30
2011,09,22,10,01,14.30
2011,09,22,10,02,14.30
2011,09,22,10,03,14.30
2011,09,22,10,04,14.30
2011,09,22,10,05,14.30
2011,09,22,10,06,14.30
2011,09,22,10,07,14.30
2011,09,22,10,08,14.30
2011,09,22,10,09,14.30
2011,09,22,10,10,14.30
2011,09,22,10,11,14.30
2011,09,22,10,12,14.30
2011,09,22,10,13,14.30
2011,09,22,10,14,14.30
2011,09,22,10,15,14.30
2011,09,22,10,16,14.30
2011,09,22,10,17,14.30
2011,09,22,10,18,14.30
2011,09,22,10,19,14.30
2011,09,22,10,20,14.30
2011,09,22,10,21,14.30
2011,09,22,10,22,14.30
2011,09,22,10,23,14.30
2011,09,22,10,24,14.30
2011,09,22,10,25,14.30
2011,09,22,10,26,14.30
2011,09,22,10,27,14.30
2011,09,22,10,28,14.30
2011,09,22,10,29,14.30
2011,09,22,10,30,14.30
2011,09,22,10,31,14.30
2011,09,22,10,32,14.30
2011,09,22,10,33,14.30
2011,09,22,10,34,14.30
2011,09,22,10,35,14.30
2011,09,22,10,36,14.30
2011,09,22,10,37,14.30
2011,09,22,10,38,14.30
2011,09,22,10,39,14.30
2011,09,22,10,40,14.30
2011,09,22,10,41,14.30
2011,09,22,10,42,14.30
2011,09,22,10,43,14.30
2011,09,22,10,44,14.30
2011,09,22,10,45,14.40
2011,09,22,10,46,14.40
2011,09,22,10,47,14.40
2011,09,22,10,48,14.40
2011,09,22,10,49,14.40
2011,09,22,10,50,14.40
2011,09,22,10,51,14.50
2011,09,22,10,52,14.50
2011,09,22,10,53,14.50
2011,09,22,10,54,14.60
2011,09,22,10,55,14.60
2011,09,22,10,56,14.60
2011,09,22,10,57,14.60
2011,09,22,10,58,14.60
2011,09,22,10,59,14.70
2011,09,22,11,00,14.70
2011,09,22,11,01,14.70
2011,09,22,11,02,14.70
2011,09,22,11,03,14.70
2011,09,22,11,04,14.70
2011,09,22,11,05,14.70
2011,09,22,11,06,14.70
2011,09,22,11,07,14.70
2011,09,22,11,08,14.70
2011,09,22,11,09,14.70
2011,09,22,11,10,14.70
2011,09,22,11,11,14.70
2011,09,22,11,12,14.70
2011,09,22,11,13,14.70
2011,09,22,11,14,14.70
2011,09,22,11,15,14.70
2011,09,22,11,16,14.70
2011,09,22,11,17,14.70
2011,09,22,11,18,14.70
2011,09,22,11,19,14.70
2011,09,22,11,20,14.70
2011,09,22,11,21,14.70
2011,09,22,11,22,14.70
2011,09,22,11,24,14.70
2011,09,22,11,25,14.70
2011,09,22,11,26,14.70
2011,09,22,11,27,14.70
2011,09,22,11,28,14.70
2011,09,22,11,29,14.70
2011,09,22,11,30,14.70
2011,09,22,11,31,14.70
2011,09,22,11,32,14.70
2011,09,22,11,33,14.70
2011,09,22,11,34,14.70
2011,09,22,11,35,14.70
2011,09,22,11,36,14.70
2011,09,22,11,37,14.70
2011,09,22,11,38,14.70
2011,09,22,11,39,14.70
2011,09,22,11,40,14.70
2011,09,22,11,41,14.70
2011,09,22,11,42,14.70
2011,09,22,11,43,14.70
2011,09,22,11,44,14.70
2011,09,22,11,45,14.70
2011,09,22,11,46,14.70
2011,09,22,11,47,14.80
2011,09,22,11,48,14.80
2011,09,22,11,49,14.80
2011,09,22,11,52,14.80
2011,09,22,11,53,14.80
2011,09,22,11,54,14.80
2011,09,22,11,55,14.80
2011,09,22,11,56,14.80
2011,09,22,11,57,14.80
2011,09,22,11,58,14.80
2011,09,22,11,59,14.80
2011,09,22,12,00,14.90
2011,09,22,12,01,14.90
2011,09,22,12,02,15.00
2011,09,22,12,03,15.00
2011,09,22,12,04,15.00
2011,09,22,12,05,15.00
2011,09,22,12,06,15.00
2011,09,22,12,07,15.00
2011,09,22,12,08,15.00
2011,09,22,12,09,15.00
2011,09,22,12,10,15.00
2011,09,22,12,11,15.00
2011,09,22,12,12,15.00
2011,09,22,12,13,15.00
2011,09,22,12,14,15.00
2011,09,22,12,15,15.00
2011,09,22,12,16,15.00
2011,09,22,12,17,15.00
2011,09,22,12,18,15.00
2011,09,22,12,19,15.00
2011,09,22,12,20,15.00
2011,09,22,12,21,15.00
2011,09,22,12,22,15.00
2011,09,22,12,23,15.00
2011,09,22,12,24,15.00
2011,09,22,12,25,15.00
2011,09,22,12,26,15.00
2011,09,22,12,27,15.00
2011,09,22,12,28,15.00
2011,09,22,12,29,15.10
2011,09,22,12,30,15.20
2011,09,22,12,31,15.10
2011,09,22,12,32,15.10
2011,09,22,12,33,15.10
2011,09,22,12,34,15.10
2011,09,22,12,35,15.20
2011,09,22,12,36,15.20
2011,09,22,12,37,15.20
2011,09,22,12,38,15.20
2011,09,22,12,39,15.20
2011,09,22,12,40,15.20
2011,09,22,12,41,15.20
2011,09,22,12,42,15.20
2011,09,22,12,43,15.20
2011,09,22,12,44,15.20
2011,09,22,12,45,15.20
2011,09,22,12,46,15.30
2011,09,22,12,47,15.30
2011,09,22,12,48,15.30
2011,09,22,12,49,15.30
2011,09,22,12,50,15.30
2011,09,22,12,51,15.30
2011,09,22,12,52,15.30
2011,09,22,12,53,15.30
2011,09,22,12,54,15.30
2011,09,22,12,55,15.30
2011,09,22,12,56,15.30
2011,09,22,12,57,15.30
2011,09,22,12,58,15.30
2011,09,22,12,59,15.30
2011,09,22,13,00,15.30
2011,09,22,13,01,15.40
2011,09,22,13,02,15.40
2011,09,22,13,03,15.40
2011,09,22,13,04,15.40
2011,09,22,13,05,15.40
2011,09,22,13,06,15.40
2011,09,22,13,07,15.40
2011,09,22,13,08,15.40
2011,09,22,13,09,15.40
2011,09,22,13,10,15.40
2011,09,22,13,11,15.50
2011,09,22,13,12,15.50
2011,09,22,13,13,15.50
2011,09,22,13,14,15.50
2011,09,22,13,15,15.60
2011,09,22,13,16,15.50
2011,09,22,13,17,15.60
2011,09,22,13,18,15.60
2011,09,22,13,19,15.60
2011,09,22,13,20,15.60
2011,09,22,13,21,15.60
2011,09,22,13,22,15.60
2011,09,22,13,23,15.60
2011,09,22,13,24,15.60
2011,09,22,13,25,15.60
2011,09,22,13,26,15.60
2011,09,22,13,27,15.60
2011,09,22,13,28,15.60
2011,09,22,13,29,15.60
2011,09,22,13,30,15.70
2011,09,22,13,31,15.70
2011,09,22,13,32,15.70
2011,09,22,13,33,15.70
2011,09,22,13,34,15.70
2011,09,22,13,35,15.70
2011,09,22,13,36,15.70
2011,09,22,13,38,15.80
2011,09,22,13,39,15.80
2011,09,22,13,40,15.80
2011,09,22,13,41,15.80
2011,09,22,13,42,15.80
2011,09,22,13,43,15.80
2011,09,22,13,44,15.90
2011,09,22,13,45,15.90
2011,09,22,13,46,15.90
2011,09,22,13,47,15.90
2011,09,22,13,48,15.90
2011,09,22,13,49,15.90
2011,09,22,13,51,15.90
2011,09,22,13,52,15.90
2011,09,22,13,53,15.90
2011,09,22,13,54,15.90
2011,09,22,13,55,15.90
2011,09,22,13,56,16.00
2011,09,22,13,57,16.00
2011,09,22,13,58,16.00
2011,09,22,13,59,16.00
2011,09,22,14,00,16.00
2011,09,22,14,01,16.10
2011,09,22,14,02,16.10
2011,09,22,14,03,16.10
2011,09,22,14,04,16.10
2011,09,22,14,05,16.20
2011,09,22,14,06,16.20
2011,09,22,14,07,16.20
2011,09,22,14,08,16.20
2011,09,22,14,09,16.20
2011,09,22,14,10,16.20
2011,09,22,14,11,16.20
2011,09,22,14,12,16.30
2011,09,22,14,13,16.30
2011,09,22,14,14,16.30
2011,09,22,14,15,16.30
2011,09,22,14,16,16.30
2011,09,22,14,17,16.30
2011,09,22,14,18,16.40
2011,09,22,14,19,16.40
2011,09,22,14,20,16.40
2011,09,22,14,21,16.50
2011,09,22,14,22,16.50
2011,09,22,14,23,16.50
2011,09,22,14,24,16.50
2011,09,22,14,25,16.50
2011,09,22,14,26,16.50
2011,09,22,14,27,16.60
2011,09,22,14,28,16.60
2011,09,22,14,29,16.60
2011,09,22,14,30,16.60
2011,09,22,14,31,16.60
2011,09,22,14,32,16.70
2011,09,22,14,33,16.70
2011,09,22,14,34,16.70
2011,09,22,14,35,16.70
2011,09,22,14,36,16.70
2011,09,22,14,37,16.80
2011,09,22,14,38,16.80
2011,09,22,14,39,16.80
2011,09,22,14,40,16.80
2011,09,22,14,41,16.80
2011,09,22,14,42,16.80
2011,09,22,14,43,16.80
2011,09,22,14,44,16.90
2011,09,22,14,45,16.90
2011,09,22,14,46,16.90
2011,09,22,14,47,16.90
2011,09,22,14,48,16.90
2011,09,22,14,49,17.00
2011,09,22,14,50,17.00
2011,09,22,14,51,17.10
2011,09,22,14,52,17.10
2011,09,22,14,53,17.10
2011,09,22,14,54,17.10
2011,09,22,14,55,17.10
2011,09,22,14,56,17.20
2011,09,22,14,57,17.20
2011,09,22,14,58,17.20
2011,09,22,15,00,17.20
2011,09,22,15,01,17.20
2011,09,22,15,02,17.20
2011,09,22,15,03,17.20
2011,09,22,15,04,17.20
2011,09,22,15,05,17.30
2011,09,22,15,06,17.30
2011,09,22,15,07,17.30
2011,09,22,15,08,17.30
2011,09,22,15,09,17.30
2011,09,22,15,10,17.30
2011,09,22,15,11,17.40
2011,09,22,15,12,17.40
2011,09,22,15,13,17.40
2011,09,22,15,14,17.40
2011,09,22,15,15,17.50
2011,09,22,15,16,17.50
2011,09,22,15,17,17.60
2011,09,22,15,18,17.60
2011,09,22,15,19,17.70
2011,09,22,15,20,17.80
2011,09,22,15,21,17.80
2011,09,22,15,22,17.90
2011,09,22,15,23,17.90
2011,09,22,15,24,18.00
2011,09,22,15,25,18.00
2011,09,22,15,26,18.00
2011,09,22,15,27,18.10
2011,09,22,15,28,18.10
2011,09,22,15,29,18.20
2011,09,22,15,30,18.20
2011,09,22,15,31,18.20
2011,09,22,15,32,18.20
2011,09,22,15,33,18.20
2011,09,22,15,34,18.20
2011,09,22,15,35,18.30
2011,09,22,15,36,18.30
2011,09,22,15,37,18.30
2011,09,22,15,38,18.30
2011,09,22,15,39,18.30
2011,09,22,15,40,18.40
2011,09,22,15,41,18.50
2011,09,22,15,42,18.50
2011,09,22,15,43,18.50
2011,09,22,15,44,18.50
2011,09,22,15,45,18.50
2011,09,22,15,46,18.50
2011,09,22,15,47,18.60
2011,09,22,15,48,18.70
2011,09,22,15,49,18.80
2011,09,22,15,50,18.90
2011,09,22,15,51,18.90
2011,09,22,15,52,18.90
2011,09,22,15,53,18.90
2011,09,22,15,54,18.80
2011,09,22,15,55,18.80
2011,09,22,15,58,18.70
2011,09,22,15,59,18.70
2011,09,22,16,00,18.70
2011,09,22,16,01,18.70
2011,09,22,16,02,18.70
2011,09,22,16,03,18.70
2011,09,22,16,04,18.70
2011,09,22,16,05,18.80
2011,09,22,16,06,18.80
2011,09,22,16,07,18.80
2011,09,22,16,08,18.80
2011,09,22,16,09,18.80
2011,09,22,16,10,18.80
2011,09,22,16,11,18.80
2011,09,22,16,12,18.70
2011,09,22,16,13,18.70
2011,09,22,16,14,18.70
2011,09,22,16,15,18.60
2011,09,22,16,16,18.60
2011,09,22,16,17,18.60
2011,09,22,16,18,18.60
2011,09,22,16,19,18.60
2011,09,22,16,20,18.50
2011,09,22,16,21,18.50
2011,09,22,16,22,18.50
2011,09,22,16,23,18.60
2011,09,22,16,24,18.60
2011,09,22,16,25,18.70
2011,09,22,16,26,18.70
2011,09,22,16,27,18.70
2011,09,22,16,28,18.70
2011,09,22,16,29,18.60
2011,09,22,16,30,18.60
2011,09,22,16,31,18.50
2011,09,22,16,32,18.40
2011,09,22,16,33,18.40
2011,09,22,16,34,18.40
2011,09,22,16,35,18.40
2011,09,22,16,36,18.40
2011,09,22,16,37,18.40
2011,09,22,16,38,18.40
2011,09,22,16,39,18.40
2011,09,22,16,40,18.40
2011,09,22,16,41,18.40
2011,09,22,16,42,18.30
2011,09,22,16,43,18.40
2011,09,22,16,44,18.40
2011,09,22,16,45,18.40
2011,09,22,16,46,18.40
2011,09,22,16,47,18.40
2011,09,22,16,48,18.40
2011,09,22,16,49,18.30
2011,09,22,16,50,18.30
2011,09,22,16,51,18.30
2011,09,22,16,52,18.30
2011,09,22,16,53,18.30
2011,09,22,16,54,18.30
2011,09,22,16,55,18.40
2011,09,22,16,56,18.30
2011,09,22,16,57,18.30
2011,09,22,16,58,18.30
2011,09,22,16,59,18.30
2011,09,22,17,00,18.30
2011,09,22,17,01,18.30
2011,09,22,17,02,18.30
2011,09,22,17,03,18.30
2011,09,22,17,04,18.30
2011,09,22,17,05,18.30
2011,09,22,17,06,18.30
2011,09,22,17,07,18.30
2011,09,22,17,08,18.30
2011,09,22,17,09,18.30
2011,09,22,17,10,18.30
2011,09,22,17,11,18.30
2011,09,22,17,12,18.30
2011,09,22,17,15,18.30
2011,09,22,17,16,18.30
2011,09,22,17,17,18.30
2011,09,22,17,18,18.20
2011,09,22,17,19,18.20
2011,09,22,17,20,18.20
2011,09,22,17,21,18.20
2011,09,22,17,22,18.20
2011,09,22,17,23,18.20
2011,09,22,17,24,18.20
2011,09,22,17,25,18.20
2011,09,22,17,26,18.20
2011,09,22,17,27,18.20
2011,09,22,17,28,18.10
2011,09,22,17,29,18.10
2011,09,22,17,30,18.10
2011,09,22,17,31,18.10
2011,09,22,17,32,18.10
2011,09,22,17,33,18.00
2011,09,22,17,34,18.00
2011,09,22,17,35,18.00
2011,09,22,17,36,18.00
2011,09,22,17,37,18.00
2011,09,22,17,38,17.90
2011,09,22,17,39,17.90